Location: Bronschhofen
(47.4788°N, 9.0353°E)
Time: 19:41:50
(UTC+00:00)

Cosmos 1125 Rocket - Pass Details

Date: 20 May 2022
Orbit: 756 x 780 km, 74.0° (Epoch: 01 July)

Event Time Altitude Azimuth Distance (km) Brightness Sun altitude
Exits shadow 01:37:46 26° 216° (SW) 1,459 4.3 -15.9°
Maximum altitude 01:40:41 70° 294° (WNW) 808 3.5 -15.6°
Drops below altitude 10° 01:45:53 10° 19° (NNE) 2,297 7.2 -15.1°
Sets 01:48:17 0° 21° (NNE) 3,228 8.3 -14.8°
